STARLINK-30393, 57866

Orbit data source: Space-Track

STARLINK-30393, 57866 is a payload satellite owned by SpaceX/Seattle (US) in LEO that was launched on Sat, 16 Sep 2023 UTC via an FALCON 9 launch vehicle from the Air Force Eastern Test Range (AFETR). Payload-class satellites include a variety of spacecraft equipped with specific instruments for various scientific and technological missions. These include communications satellites like Starlink; space stations such as the ISS; scientific satellites like the Hubble; Earth observation satellites from companies like Planet Labs, Umbra, and HawkEye 360; GPS; miniature CubeSats for education and research; and military/defense satellites.

Loading next visibility...
Identifier
57866, 2023-144C
Orbit
LEO
Country
Flag of USUS
Related business
Manufacturer
SpaceX/Seattle
Mission
Operational Commercial Communications
Bus & Motor
STARLINK V2M, Unknown motor
Mass
730 kg wet, ~700 kg dry
Launch date (UTC)
2023-09-16 (2 years ago)
Launch vehicle
FALCON 9
Launch site
Air Force Eastern Test Range (AFETR)
Object type
Payload
Rocket body
Debris
Shape & HBR
Box + 2 Pan, 17.7 m
Radar Cross Section
33.884 m², Large (>1 m²)

Expand to show TLE details & history
Last TLE update: 10 hours ago

TLE from 10 hours ago
0 STARLINK-30393
1 57866U 23144C   25346.86282711 -.00000208  00000-0 -32111-6 0  9997
2 57866  43.0048  38.9253 0001071 274.5302  85.5418 15.02532709124513
Epoch: 2025-12-12T20:42Z
TLE epoch observation values (Epoch: 2025-12-12T20:42:28.262Z)
Latitude
-0.00001°
Longitude
6.50917°
Altitude
558.81 km
Speed
7.584 km/s
True Right ascension
02h 35m 42s
True Declination
0° 00' 00"
Sunlit
Object was in full shadow at epoch
Visualization orbit readout
Latitude
Unknown
Longitude
Unknown
Altitude
Unknown
Speed
Unknown
Apparent Right ascension
Unknown
Apparent Declination
Unknown
Sunlit
N/A
Visualization observer readout
Local Sidereal Time
05:28:43
Azimuth
Unknown
Elevation
Unknown
Doppler factor
Unknown
Orbital elements
Apogee altitude
561.756 km
Perigee altitude
560.27 km
Semi-major axis
6,939.15 km
Eccentricity
0.00011
Inclination
43.0048°
RAAN
38.9253°
Arg. of periapsis
274.5302°
True anomaly
85.55404°
Mean anomaly
85.5418°
Eccentric anomaly
85.54792°
Mean motion
3.75477 °/min
Orbital period
95.88 mins
BSTAR
-3.2111e-7
Loading maneuver chart data...
Computing Atmospheric mass density...
Loading historical data...
Loading historical data...
Loading historical data...
Loading historical data...
Loading historical data...
Loading historical data...
Loading historical data...

Documentation

Showing up to 5 results
|